Location: La Pernelle
(49.6188°N, 1.2999°W)
Time: 16:21:08
(UTC+00:00)

Cosmos 1626 - Pass Details

Date: 27 October 2021
Orbit: 487 x 492 km, 82.5° (Epoch: 30 November)

Event Time Altitude Azimuth Distance (km) Brightness Sun altitude
Exits shadow 05:46:45 14° 294° (WNW) 1,482 3.9 -10.1°
Maximum altitude 05:46:48 14° 295° (WNW) 1,482 3.9 -10.1°
Drops below altitude 10° 05:48:45 10° 327° (NNW) 1,700 4.4 -9.8°
Sets 05:51:48 0° 354° (N) 2,588 5.6 -9.3°
